This is the latest recevied weather packets stored in our database for station/object DM2KB-13. If no packets are shown the sender has not sent any weather packets the latest 10 day(s).
| Time | Temp. | Humidity | Pressure | Rain* | Wind** | Luminosity | Snow |
|---|---|---|---|---|---|---|---|
| 1777820850 | 18.33° C | 70% | 1010.1 hPa | 0 mm | - | 162 W/m² | - |
| 1777820550 | 18.33° C | 70% | 1010.1 hPa | 0 mm | - | 265 W/m² | - |
| 1777820250 | 18.33° C | 70% | 1010.2 hPa | 0 mm | - | 294 W/m² | - |
| 1777819950 | 17.78° C | 71% | 1010.1 hPa | 0 mm | - | 334 W/m² | - |
| 1777819649 | 17.78° C | 71% | 1010.2 hPa | 0 mm | - | 352 W/m² | - |
| 1777819349 | 17.78° C | 71% | 1010.1 hPa | 0 mm | - | 236 W/m² | - |
| 1777819049 | 17.78° C | 71% | 1010.2 hPa | 0 mm | - | 202 W/m² | - |
| 1777818748 | 17.78° C | 71% | 1010.2 hPa | 0 mm | - | 197 W/m² | - |
| 1777818448 | 17.78° C | 72% | 1010.2 hPa | 0 mm | - | 225 W/m² | - |
| 1777818148 | 17.78° C | 72% | 1010.3 hPa | 0 mm | - | 230 W/m² | - |
| 1777817848 | 17.78° C | 72% | 1010.3 hPa | 0 mm | - | 239 W/m² | - |
| 1777817547 | 17.78° C | 71% | 1010.2 hPa | 0 mm | - | 246 W/m² | - |
| 1777817247 | 17.78° C | 70% | 1010.2 hPa | 0 mm | - | 216 W/m² | - |
| 1777816947 | 18.33° C | 69% | 1010.2 hPa | 0 mm | - | 199 W/m² | - |
| 1777816647 | 18.33° C | 68% | 1010.1 hPa | 0 mm | - | 185 W/m² | - |
| 1777816346 | 18.89° C | 66% | 1010.1 hPa | 0 mm | - | 142 W/m² | - |
| 1777816046 | 19.44° C | 62% | 1010 hPa | 0 mm | - | 105 W/m² | - |
| 1777815746 | 19.44° C | 59% | 1010 hPa | 0 mm | - | 100 W/m² | - |
| 1777815445 | 19.44° C | 56% | 1010 hPa | 0 mm | - | 127 W/m² | - |
| 1777815145 | 20° C | 55% | 1010 hPa | 0 mm | - | 156 W/m² | - |
| 1777814845 | 20° C | 55% | 1010 hPa | 0 mm | - | 185 W/m² | - |
| 1777814544 | 20° C | 54% | 1010 hPa | 0 mm | - | 188 W/m² | - |
| 1777814244 | 20° C | 54% | 1010.2 hPa | 0 mm | - | 207 W/m² | - |
| 1777813944 | 20° C | 53% | 1010.1 hPa | 0 mm | - | 225 W/m² | - |
| 1777813644 | 20.56° C | 53% | 1010.1 hPa | 0 mm | - | 227 W/m² | - |
* Rain latest hour (hover to see other rain measurements)
** Current wind speed in m/s (hover to see current wind gust speed)